When you browse on this site, cookies collect data to enhance your experience and personalize the content and advertising you see.
Visit our Privacy Policy to learn more. By continuing to use the site, you agree to this use of cookies and data.
  • In Österreich
  • Länderverzeichnis
  • Für 7 Tage
  • Wassertemperatur
  • Satellitenkarten
  • Wetterkarte
  • News
  • Widgets
  • user-avatar
    Anmelden

    Stündliche Wetter Kipungo

    Heute, 20 Juli, Samstag

    Zeit Temperatur Niederschläge Wind Luftdruck Luftfeuchtigkeit
    00:00 +12°C° 0 mm 1 m/S 653 mmHg 32%
    01:00 +10°C° 0 mm 0 m/S 653 mmHg 35%
    02:00 +9°C° 0 mm 0 m/S 653 mmHg 37%
    03:00 +9°C° 0 mm 0 m/S 653 mmHg 38%
    04:00 +8°C° 0 mm 0 m/S 653 mmHg 40%
    05:00 +8°C° 0 mm 0 m/S 653 mmHg 40%
    06:00 +8°C° 0 mm 0 m/S 653 mmHg 40%
    07:00 +10°C° 0 mm 1 m/S 654 mmHg 38%
    08:00 +15°C° 0 mm 1 m/S 655 mmHg 31%
    09:00 +19°C° 0 mm 2 m/S 656 mmHg 23%
    10:00 +25°C° 0 mm 3 m/S 657 mmHg 15%
    11:00 +27°C° 0 mm 2 m/S 657 mmHg 13%
    12:00 +29°C° 0 mm 2 m/S 657 mmHg 11%
    13:00 +31°C° 0 mm 2 m/S 656 mmHg 9%
    14:00 +31°C° 0 mm 2 m/S 656 mmHg 9%
    15:00 +31°C° 0 mm 2 m/S 655 mmHg 8%
    16:00 +32°C° 0 mm 1 m/S 655 mmHg 8%
    17:00 +28°C° 0 mm 1 m/S 655 mmHg 11%
    18:00 +24°C° 0 mm 1 m/S 654 mmHg 14%
    19:00 +20°C° 0 mm 1 m/S 654 mmHg 17%
    20:00 +18°C° 0 mm 1 m/S 654 mmHg 21%
    21:00 +16°C° 0 mm 1 m/S 654 mmHg 26%
    22:00 +15°C° 0 mm 2 m/S 654 mmHg 30%
    23:00 +13°C° 0 mm 2 m/S 654 mmHg 42%

    Morgen, 21 Juli, Sonntag

    Zeit Temperatur Niederschläge Wind Luftdruck Luftfeuchtigkeit
    00:00 +12°C° 0 mm 1 m/S 653 mmHg 54%
    01:00 +11°C° 0 mm 1 m/S 653 mmHg 66%
    02:00 +11°C° 0 mm 1 m/S 653 mmHg 71%
    03:00 +10°C° 0 mm 1 m/S 653 mmHg 75%
    04:00 +9°C° 0 mm 1 m/S 653 mmHg 80%
    05:00 +9°C° 0 mm 1 m/S 653 mmHg 78%
    06:00 +8°C° 0 mm 0 m/S 653 mmHg 75%
    07:00 +8°C° 0 mm 0 m/S 654 mmHg 72%
    08:00 +14°C° 0 mm 1 m/S 655 mmHg 55%
    09:00 +21°C° 0 mm 1 m/S 656 mmHg 38%
    10:00 +26°C° 0 mm 2 m/S 657 mmHg 20%
    11:00 +28°C° 0 mm 2 m/S 657 mmHg 16%
    12:00 +30°C° 0 mm 2 m/S 657 mmHg 13%
    13:00 +31°C° 0 mm 3 m/S 656 mmHg 9%
    14:00 +32°C° 0 mm 2 m/S 656 mmHg 8%
    15:00 +32°C° 0 mm 2 m/S 656 mmHg 8%
    16:00 +32°C° 0 mm 1 m/S 655 mmHg 8%
    17:00 +28°C° 0 mm 1 m/S 655 mmHg 10%
    18:00 +25°C° 0 mm 1 m/S 655 mmHg 13%
    19:00 +21°C° 0 mm 1 m/S 654 mmHg 15%
    20:00 +19°C° 0 mm 1 m/S 654 mmHg 24%
    21:00 +16°C° 0 mm 2 m/S 654 mmHg 33%
    22:00 +14°C° 0 mm 2 m/S 654 mmHg 42%
    23:00 +14°C° 0 mm 2 m/S 654 mmHg 55%

    übermorgen, 22 Juli, Montag

    Zeit Temperatur Niederschläge Wind Luftdruck Luftfeuchtigkeit
    00:00 +13°C° 0 mm 2 m/S 653 mmHg 69%
    01:00 +12°C° 0 mm 1 m/S 653 mmHg 82%
    02:00 +11°C° 0 mm 1 m/S 653 mmHg 82%
    03:00 +11°C° 0 mm 1 m/S 652 mmHg 83%
    04:00 +9°C° 0 mm 0 m/S 652 mmHg 84%
    05:00 +9°C° 0 mm 0 m/S 652 mmHg 82%
    06:00 +9°C° 0 mm 0 m/S 653 mmHg 81%
    07:00 +9°C° 0 mm 0 m/S 653 mmHg 79%
    08:00 +15°C° 0 mm 1 m/S 654 mmHg 60%
    09:00 +21°C° 0 mm 1 m/S 656 mmHg 40%
    10:00 +26°C° 0 mm 2 m/S 657 mmHg 21%
    11:00 +28°C° 0 mm 2 m/S 656 mmHg 17%
    12:00 +30°C° 0 mm 2 m/S 656 mmHg 14%
    13:00 +32°C° 0 mm 2 m/S 656 mmHg 10%
    14:00 +32°C° 0 mm 2 m/S 655 mmHg 10%
    15:00 +32°C° 0 mm 2 m/S 655 mmHg 10%
    16:00 +34°C° 0 mm 2 m/S 654 mmHg 9%
    17:00 +29°C° 0 mm 2 m/S 654 mmHg 12%
    18:00 +25°C° 0 mm 1 m/S 653 mmHg 15%
    19:00 +22°C° 0 mm 1 m/S 653 mmHg 18%
    20:00 +20°C° 0 mm 1 m/S 653 mmHg 25%
    21:00 +18°C° 0 mm 1 m/S 653 mmHg 32%
    22:00 +15°C° 0 mm 1 m/S 653 mmHg 39%
    23:00 +15°C° 0 mm 1 m/S 653 mmHg 44%

    23 Juli, Dienstag

    Zeit Temperatur Niederschläge Wind Luftdruck Luftfeuchtigkeit
    00:00 +14°C° 0 mm 2 m/S 652 mmHg 50%
    01:00 +13°C° 0 mm 2 m/S 652 mmHg 55%
    02:00 +13°C° 0 mm 1 m/S 652 mmHg 57%
    03:00 +12°C° 0 mm 1 m/S 652 mmHg 60%
    04:00 +10°C° 0 mm 0 m/S 651 mmHg 63%
    05:00 +10°C° 0 mm 0 m/S 652 mmHg 62%
    06:00 +10°C° 0 mm 0 m/S 652 mmHg 62%
    07:00 +10°C° 0 mm 0 m/S 652 mmHg 61%
    08:00 +16°C° 0 mm 0 m/S 654 mmHg 47%
    09:00 +21°C° 0 mm 0 m/S 656 mmHg 33%
    10:00 +27°C° 0 mm 0 m/S 657 mmHg 19%
    11:00 +31°C° 0 mm 1 m/S 657 mmHg 16%
    12:00 +33°C° 0 mm 1 m/S 656 mmHg 13%
    13:00 +34°C° 0 mm 1 m/S 656 mmHg 10%
    14:00 +34°C° 0 mm 1 m/S 655 mmHg 10%
    15:00 +35°C° 0 mm 2 m/S 655 mmHg 10%
    16:00 +34°C° 0 mm 2 m/S 654 mmHg 10%
    17:00 +29°C° 0 mm 2 m/S 654 mmHg 15%
    18:00 +26°C° 0 mm 2 m/S 653 mmHg 19%
    19:00 +21°C° 0 mm 2 m/S 653 mmHg 23%
    20:00 +19°C° 0 mm 2 m/S 653 mmHg 27%
    21:00 +18°C° 0 mm 2 m/S 653 mmHg 31%
    22:00 +16°C° 0 mm 2 m/S 653 mmHg 34%
    23:00 +15°C° 0 mm 2 m/S 653 mmHg 37%

    24 Juli, Mittwoch

    Zeit Temperatur Niederschläge Wind Luftdruck Luftfeuchtigkeit
    00:00 +14°C° 0 mm 1 m/S 652 mmHg 39%
    01:00 +13°C° 0 mm 1 m/S 652 mmHg 41%
    02:00 +13°C° 0 mm 1 m/S 652 mmHg 44%
    03:00 +11°C° 0 mm 0 m/S 651 mmHg 46%
    04:00 +10°C° 0 mm 0 m/S 651 mmHg 48%
    05:00 +10°C° 0 mm 0 m/S 652 mmHg 47%
    06:00 +10°C° 0 mm 0 m/S 652 mmHg 46%
    07:00 +10°C° 0 mm 0 m/S 653 mmHg 46%
    08:00 +16°C° 0 mm 1 m/S 654 mmHg 36%
    09:00 +21°C° 0 mm 1 m/S 655 mmHg 27%
    10:00 +26°C° 0 mm 2 m/S 656 mmHg 18%
    11:00 +29°C° 0 mm 2 m/S 656 mmHg 15%
    12:00 +31°C° 0 mm 1 m/S 656 mmHg 13%
    13:00 +34°C° 0 mm 1 m/S 656 mmHg 10%
    14:00 +34°C° 0 mm 1 m/S 655 mmHg 11%
    15:00 +33°C° 0 mm 1 m/S 655 mmHg 11%
    16:00 +33°C° 0 mm 1 m/S 654 mmHg 11%
    17:00 +29°C° 0 mm 1 m/S 654 mmHg 14%
    18:00 +26°C° 0 mm 1 m/S 653 mmHg 17%
    19:00 +22°C° 0 mm 1 m/S 653 mmHg 21%
    20:00 +21°C° 0 mm 1 m/S 653 mmHg 22%
    21:00 +19°C° 0 mm 2 m/S 653 mmHg 24%
    22:00 +17°C° 0 mm 2 m/S 654 mmHg 26%
    23:00 +16°C° 0 mm 2 m/S 653 mmHg 28%

    25 Juli, Donnerstag

    Zeit Temperatur Niederschläge Wind Luftdruck Luftfeuchtigkeit
    00:00 +15°C° 0 mm 2 m/S 653 mmHg 31%
    01:00 +14°C° 0 mm 1 m/S 653 mmHg 34%
    02:00 +13°C° 0 mm 1 m/S 653 mmHg 37%
    03:00 +13°C° 0 mm 1 m/S 652 mmHg 39%
    04:00 +11°C° 0 mm 0 m/S 652 mmHg 42%
    05:00 +11°C° 0 mm 0 m/S 653 mmHg 41%
    06:00 +11°C° 0 mm 0 m/S 653 mmHg 41%
    07:00 +11°C° 0 mm 0 m/S 654 mmHg 40%
    08:00 +18°C° 0 mm 1 m/S 655 mmHg 32%
    09:00 +21°C° 0 mm 2 m/S 656 mmHg 24%
    10:00 +27°C° 0 mm 2 m/S 657 mmHg 15%
    11:00 +29°C° 0 mm 2 m/S 656 mmHg 14%
    12:00 +31°C° 0 mm 3 m/S 656 mmHg 12%
    13:00 +34°C° 0 mm 3 m/S 656 mmHg 11%
    14:00 +34°C° 0 mm 2 m/S 655 mmHg 10%
    15:00 +34°C° 0 mm 2 m/S 655 mmHg 10%
    16:00 +33°C° 0 mm 1 m/S 655 mmHg 10%
    17:00 +30°C° 0 mm 1 m/S 654 mmHg 13%
    18:00 +27°C° 0 mm 1 m/S 654 mmHg 15%
    19:00 +23°C° 0 mm 1 m/S 654 mmHg 18%
    20:00 +21°C° 0 mm 2 m/S 654 mmHg 22%
    21:00 +19°C° 0 mm 2 m/S 654 mmHg 25%
    22:00 +17°C° 0 mm 2 m/S 654 mmHg 28%
    23:00 +16°C° 0 mm 2 m/S 654 mmHg 32%
    Mehr zeigen